Tracking 18796 objects as of 20-September-2017
HD Live streaming from Space Station
objects crossing your sky now

FLOCK 2K 11

Track FLOCK 2K 11 now!
10-day predictions
FLOCK 2K 11 is classified as:


NORAD ID: 42894
Int'l Code: 2017-042BX
Perigee: 462.2 km
Apogee: 481.2 km
Inclination: 97.0 °
Period: 93.9 minutes
Semi major axis: 6842 km
RCS: Unknown
Launch date: July 14, 2017
Source: United States (US)
Launch site: TYURATAM MISSILE AND SPACE COMPLEX (TTMTR)
aabbcc
Your satellite tracking list
Your tracking list is empty





NASA's NSSDC Master Catalog

Two Line Element Set (TLE):
1 42894U 17042BX  17262.81050950  .00002634  00000-0  82649-4 0  9995
2 42894  96.9970 168.2644 0013866   4.1761 355.9596 15.33787340 10153
Source of the keplerian elements: AFSPC